QPF
0.01 0.04 0.04 0.06 0.09 0.03 0.00 0.00 0.00 0.00 0.00 0.00 0.00 0.00 0.00 0.00 0.00 0.01 0.00 0.00 0.00 0.00 0.00 0.00 0.00 0.00 0.00 0.00 0.00 0.01 0.01 0.01 0.01 0.02 0.02 0.02 0.01 0.00 0.00 0.00 0.00 0.00 0.00 0.00 0.02 0.04 0.05 0.08 0.08
0.01 0.03 0.05 0.09 0.08 0.01 0.00 0.00 0.00 0.00 0.00 0.00 0.00 0.00 0.00 0.00 0.00 0.00 0.00 0.00 0.00 0.00 0.00 0.00 0.00 0.00 0.00 0.00 0.00 0.01 0.01 0.01 0.01 0.02 0.02 0.02 0.01 0.01 0.01 0.00 0.00 0.00 0.00 0.01 0.02 0.06 0.07 0.08 0.08
0.00 0.02 0.05 0.11 0.06 0.00 0.00 0.00 0.00 0.00 0.00 0.00 0.00 0.00 0.00 0.00 0.00 0.00 0.00 0.00 0.00 0.00 0.00 0.00 0.00 0.00 0.00 0.00 0.01 0.01 0.01 0.00 0.01 0.02 0.01 0.01 0.01 0.01 0.01 0.00 0.00 0.00 0.00 0.01 0.03 0.05 0.06 0.05 0.04
0.01 0.04 0.10 0.09 0.03 0.00 0.00 0.00 0.00 0.00 0.00 0.00 0.00 0.00 0.00 0.00 0.00 0.00 0.00 0.00 0.00 0.00 0.00 0.00 0.00 0.00 0.00 0.00 0.00 0.01 0.01 0.01 0.01 0.01 0.01 0.01 0.01 0.01 0.01 0.01 0.00 0.00 0.00 0.01 0.02 0.04 0.05 0.02 0.02
0.03 0.09 0.20 0.13 0.02 0.00 0.00 0.00 0.00 0.00 0.00 0.00 0.00 0.00 0.00 0.00 0.00 0.00 0.00 0.00 0.00 0.00 0.00 0.00 0.00 0.00 0.00 0.00 0.00 0.00 0.01 0.01 0.01 0.01 0.01 0.01 0.01 0.01 0.01 0.00 0.00 0.00 0.00 0.00 0.01 0.02 0.03 0.01 0.01
0.07 0.15 0.27 0.16 0.02 0.00 0.00 0.00 0.00 0.00 0.00 0.00 0.00 0.00 0.00 0.00 0.00 0.00 0.00 0.00 0.00 0.00 0.00 0.00 0.01 0.00 0.00 0.00 0.00 0.00 0.00 0.01 0.01 0.01 0.01 0.01 0.01 0.01 0.01 0.00 0.00 0.00 0.00 0.00 0.00 0.01 0.01 0.00 0.00
0.08 0.20 0.36 0.23 0.03 0.00 0.00 0.00 0.00 0.00 0.00 0.00 0.00 0.00 0.00 0.00 0.00 0.00 0.00 0.01 0.01 0.01 0.00 0.00 0.00 0.00 0.00 0.00 0.00 0.00 0.00 0.01 0.01 0.01 0.01 0.00 0.01 0.01 0.00 0.00 0.00 0.00 0.00 0.00 0.00 0.00 0.00 0.00 0.00
0.04 0.11 0.26 0.18 0.04 0.01 0.00 0.00 0.00 0.00 0.00 0.00 0.00 0.00 0.00 0.00 0.00 0.00 0.00 0.01 0.01 0.01 0.00 0.00 0.00 0.00 0.00 0.00 0.00 0.00 0.00 0.00 0.00 0.00 0.00 0.01 0.01 0.01 0.00 0.00 0.00 0.00 0.00 0.00 0.00 0.00 0.00 0.00 0.00
0.05 0.07 0.14 0.16 0.09 0.03 0.01 0.00 0.00 0.00 0.00 0.00 0.00 0.00 0.00 0.00 0.00 0.00 0.00 0.00 0.01 0.00 0.00 0.00 0.00 0.00 0.00 0.00 0.00 0.00 0.00 0.00 0.00 0.00 0.01 0.00 0.00 0.00 0.00 0.00 0.00 0.00 0.00 0.00 0.00 0.00 0.00 0.00 0.00
0.14 0.11 0.18 0.28 0.15 0.06 0.02 0.00 0.00 0.00 0.00 0.00 0.00 0.00 0.00 0.00 0.00 0.00 0.00 0.00 0.00 0.00 0.00 0.00 0.00 0.00 0.00 0.00 0.00 0.00 0.00 0.00 0.00 0.00 0.00 0.01 0.01 0.00 0.00 0.00 0.00 0.00 0.00 0.00 0.00 0.00 0.00 0.00 0.00
0.13 0.15 0.15 0.20 0.12 0.04 0.01 0.00 0.00 0.00 0.00 0.00 0.00 0.00 0.00 0.00 0.00 0.00 0.00 0.00 0.00 0.00 0.00 0.00 0.00 0.00 0.00 0.00 0.00 0.00 0.00 0.00 0.00 0.00 0.00 0.01 0.01 0.00 0.00 0.00 0.00 0.00 0.00 0.00 0.00 0.00 0.00 0.00 0.00
0.05 0.05 0.05 0.04 0.02 0.02 0.02 0.01 0.00 0.00 0.00 0.00 0.00 0.00 0.00 0.00 0.00 0.00 0.00 0.00 0.00 0.00 0.00 0.01 0.00 0.00 0.01 0.00 0.00 0.00 0.00 0.00 0.00 0.00 0.01 0.01 0.01 0.01 0.00 0.00 0.00 0.00 0.00 0.00 0.00 0.00 0.00 0.00 0.00
0.03 0.02 0.01 0.01 0.01 0.02 0.01 0.01 0.01 0.00 0.00 0.00 0.00 0.00 0.00 0.00 0.00 0.00 0.00 0.00 0.00 0.00 0.00 0.00 0.00 0.00 0.01 0.01 0.00 0.00 0.00 0.00 0.00 0.00 0.01 0.01 0.01 0.01 0.00 0.00 0.00 0.00 0.00 0.00 0.00 0.00 0.00 0.00 0.00
0.01 0.01 0.01 0.01 0.02 0.02 0.01 0.01 0.01 0.01 0.01 0.01 0.00 0.00 0.00 0.00 0.00 0.00 0.00 0.00 0.00 0.00 0.00 0.00 0.00 0.00 0.00 0.00 0.00 0.00 0.00 0.00 0.00 0.00 0.01 0.01 0.01 0.02 0.01 0.01 0.00 0.00 0.01 0.00 0.00 0.00 0.00 0.00 0.00
0.01 0.01 0.01 0.01 0.01 0.01 0.01 0.01 0.01 0.02 0.02 0.03 0.02 0.01 0.00 0.00 0.00 0.00 0.00 0.00 0.00 0.00 0.00 0.00 0.00 0.00 0.00 0.00 0.01 0.00 0.00 0.00 0.00 0.00 0.01 0.01 0.01 0.02 0.01 0.02 0.01 0.00 0.00 0.00 0.00 0.01 0.00 0.00 0.00
0.01 0.01 0.02 0.03 0.02 0.02 0.02 0.01 0.03 0.06 0.06 0.06 0.05 0.03 0.00 0.00 0.00 0.00 0.00 0.00 0.00 0.00 0.00 0.00 0.00 0.00 0.00 0.01 0.01 0.01 0.02 0.03 0.03 0.02 0.02 0.03 0.02 0.01 0.01 0.02 0.02 0.01 0.00 0.00 0.01 0.01 0.01 0.00 0.00
0.03 0.04 0.04 0.06 0.04 0.05 0.07 0.06 0.08 0.10 0.08 0.06 0.06 0.04 0.02 0.00 0.00 0.00 0.00 0.00 0.00 0.00 0.00 0.00 0.00 0.00 0.00 0.01 0.02 0.05 0.08 0.12 0.14 0.12 0.08 0.07 0.06 0.03 0.02 0.02 0.03 0.02 0.01 0.01 0.00 0.01 0.01 0.00 0.00
0.07 0.04 0.04 0.04 0.05 0.05 0.08 0.10 0.11 0.11 0.09 0.06 0.04 0.04 0.03 0.01 0.01 0.00 0.00 0.00 0.00 0.00 0.00 0.00 0.00 0.01 0.02 0.04 0.06 0.12 0.20 0.30 0.44 0.41 0.22 0.11 0.09 0.08 0.05 0.03 0.04 0.04 0.02 0.01 0.01 0.01 0.01 0.01 0.01
0.07 0.05 0.04 0.05 0.05 0.05 0.06 0.07 0.09 0.09 0.07 0.06 0.05 0.04 0.03 0.02 0.02 0.02 0.00 0.00 0.00 0.00 0.00 0.00 0.01 0.01 0.02 0.04 0.08 0.16 0.20 0.23 0.30 0.31 0.24 0.15 0.12 0.13 0.14 0.10 0.08 0.07 0.04 0.02 0.03 0.04 0.04 0.04 0.03
0.03 0.02 0.02 0.02 0.03 0.03 0.03 0.03 0.03 0.03 0.03 0.04 0.04 0.04 0.03 0.04 0.03 0.02 0.01 0.00 0.00 0.00 0.00 0.01 0.01 0.01 0.02 0.05 0.10 0.13 0.13 0.13 0.15 0.17 0.17 0.15 0.13 0.17 0.24 0.23 0.18 0.13 0.09 0.07 0.07 0.08 0.10 0.11 0.09
0.01 0.01 0.01 0.01 0.01 0.01 0.01 0.01 0.01 0.01 0.01 0.01 0.02 0.02 0.03 0.03 0.03 0.01 0.01 0.00 0.00 0.00 0.00 0.01 0.00 0.00 0.02 0.05 0.07 0.07 0.06 0.06 0.08 0.10 0.10 0.12 0.15 0.20 0.27 0.30 0.26 0.19 0.16 0.16 0.16 0.17 0.16 0.15 0.15
0.00 0.00 0.00 0.00 0.01 0.01 0.01 0.01 0.00 0.00 0.00 0.00 0.01 0.01 0.02 0.02 0.01 0.01 0.00 0.01 0.01 0.01 0.01 0.00 0.00 0.00 0.01 0.03 0.03 0.02 0.01 0.02 0.04 0.05 0.07 0.10 0.15 0.19 0.22 0.28 0.31 0.27 0.23 0.24 0.23 0.21 0.18 0.15 0.13
0.00 0.00 0.00 0.01 0.01 0.01 0.01 0.01 0.00 0.00 0.00 0.00 0.01 0.01 0.02 0.02 0.01 0.00 0.01 0.01 0.01 0.01 0.01 0.01 0.00 0.00 0.01 0.01 0.00 0.00 0.01 0.01 0.03 0.05 0.06 0.07 0.09 0.13 0.17 0.23 0.28 0.29 0.30 0.31 0.31 0.23 0.17 0.14 0.11
0.00 0.00 0.01 0.02 0.02 0.01 0.01 0.01 0.01 0.01 0.01 0.01 0.01 0.01 0.01 0.02 0.01 0.02 0.02 0.03 0.02 0.03 0.02 0.02 0.01 0.00 0.00 0.00 0.00 0.00 0.00 0.01 0.02 0.04 0.05 0.04 0.05 0.07 0.10 0.14 0.17 0.19 0.22 0.26 0.28 0.25 0.22 0.16 0.12
0.00 0.01 0.02 0.04 0.05 0.05 0.03 0.04 0.04 0.02 0.01 0.01 0.01 0.01 0.02 0.03 0.04 0.06 0.06 0.05 0.04 0.02 0.01 0.01 0.00 0.00 0.00 0.00 0.00 0.00 0.00 0.01 0.01 0.02 0.02 0.02 0.02 0.03 0.04 0.06 0.08 0.11 0.11 0.16 0.20 0.18 0.19 0.18 0.14
0.00 0.01 0.03 0.04 0.04 0.05 0.05 0.07 0.07 0.04 0.03 0.02 0.02 0.03 0.05 0.09 0.11 0.12 0.11 0.08 0.05 0.02 0.00 0.00 0.00 0.00 0.00 0.00 0.00 0.00 0.00 0.00 0.00 0.01 0.01 0.01 0.01 0.01 0.01 0.02 0.04 0.07 0.10 0.14 0.18 0.16 0.15 0.16 0.16
0.01 0.02 0.04 0.06 0.05 0.03 0.04 0.08 0.08 0.07 0.06 0.05 0.06 0.07 0.12 0.22 0.26 0.25 0.19 0.11 0.06 0.02 0.01 0.00 0.00 0.00 0.00 0.00 0.00 0.00 0.00 0.00 0.00 0.00 0.00 0.00 0.00 0.00 0.01 0.01 0.03 0.05 0.07 0.10 0.16 0.19 0.22 0.22 0.19
0.02 0.03 0.06 0.10 0.11 0.08 0.08 0.13 0.15 0.14 0.14 0.13 0.13 0.16 0.24 0.37 0.44 0.46 0.40 0.24 0.08 0.02 0.01 0.00 0.00 0.00 0.00 0.00 0.00 0.00 0.00 0.00 0.00 0.00 0.00 0.00 0.00 0.00 0.00 0.01 0.02 0.03 0.04 0.05 0.07 0.10 0.17 0.22 0.21
0.04 0.07 0.09 0.13 0.16 0.18 0.19 0.25 0.20 0.15 0.16 0.22 0.30 0.36 0.43 0.49 0.56 0.57 0.45 0.26 0.09 0.03 0.01 0.01 0.00 0.00 0.00 0.00 0.00 0.00 0.00 0.00 0.00 0.00 0.00 0.00 0.00 0.00 0.00 0.00 0.00 0.00 0.01 0.01 0.02 0.04 0.06 0.10 0.15
0.05 0.12 0.18 0.21 0.24 0.21 0.23 0.34 0.24 0.12 0.13 0.17 0.24 0.31 0.38 0.40 0.38 0.37 0.27 0.14 0.08 0.05 0.03 0.02 0.02 0.01 0.02 0.03 0.02 0.01 0.00 0.00 0.00 0.00 0.00 0.00 0.00 0.00 0.00 0.00 0.00 0.01 0.00 0.00 0.00 0.01 0.01 0.03 0.06
MSLP
1006.50 1007.55 1008.81 1010.10 1011.22 1012.01 1012.38 1012.34 1011.98 1011.43 1010.88 1010.46 1010.25 1010.28 1010.48 1010.76 1011.02 1011.16 1011.14 1010.99 1010.77 1010.57 1010.46 1010.48 1010.67 1010.95 1011.28 1011.57 1011.77 1011.86 1011.87 1011.83 1011.82 1011.89 1012.07 1012.35 1012.69 1013.03 1013.32 1013.50 1013.57 1013.54 1013.46 1013.35 1013.26 1013.21 1013.19 1013.19 1013.18
1006.90 1008.11 1009.45 1010.71 1011.68 1012.25 1012.36 1012.05 1011.46 1010.74 1010.08 1009.63 1009.44 1009.50 1009.75 1010.07 1010.36 1010.52 1010.53 1010.43 1010.27 1010.14 1010.12 1010.25 1010.51 1010.86 1011.22 1011.53 1011.74 1011.84 1011.87 1011.87 1011.91 1012.03 1012.26 1012.56 1012.90 1013.21 1013.45 1013.57 1013.60 1013.55 1013.46 1013.38 1013.34 1013.34 1013.37 1013.40 1013.40
1007.58 1008.91 1010.25 1011.40 1012.17 1012.46 1012.27 1011.69 1010.88 1010.03 1009.32 1008.88 1008.74 1008.88 1009.20 1009.57 1009.88 1010.05 1010.08 1009.99 1009.87 1009.80 1009.84 1010.04 1010.36 1010.75 1011.13 1011.46 1011.67 1011.79 1011.85 1011.89 1011.97 1012.14 1012.40 1012.71 1013.03 1013.30 1013.49 1013.56 1013.54 1013.47 1013.40 1013.36 1013.38 1013.45 1013.54 1013.62 1013.65
1008.52 1009.91 1011.20 1012.17 1012.68 1012.68 1012.20 1011.37 1010.38 1009.45 1008.73 1008.34 1008.29 1008.52 1008.91 1009.33 1009.65 1009.82 1009.84 1009.75 1009.64 1009.60 1009.68 1009.91 1010.27 1010.68 1011.07 1011.39 1011.61 1011.73 1011.80 1011.88 1012.01 1012.21 1012.49 1012.81 1013.11 1013.35 1013.48 1013.50 1013.46 1013.38 1013.33 1013.34 1013.42 1013.57 1013.73 1013.85 1013.92
1009.61 1011.00 1012.18 1012.95 1013.20 1012.91 1012.17 1011.15 1010.04 1009.07 1008.40 1008.09 1008.14 1008.46 1008.91 1009.36 1009.68 1009.82 1009.81 1009.70 1009.59 1009.56 1009.67 1009.92 1010.29 1010.70 1011.08 1011.38 1011.58 1011.70 1011.77 1011.87 1012.02 1012.26 1012.56 1012.88 1013.17 1013.38 1013.48 1013.48 1013.41 1013.34 1013.31 1013.37 1013.50 1013.70 1013.92 1014.09 1014.18
1010.66 1012.01 1013.04 1013.59 1013.60 1013.07 1012.14 1010.98 1009.83 1008.89 1008.30 1008.10 1008.26 1008.65 1009.14 1009.58 1009.88 1009.98 1009.93 1009.79 1009.68 1009.66 1009.79 1010.06 1010.43 1010.83 1011.18 1011.45 1011.62 1011.71 1011.78 1011.88 1012.05 1012.31 1012.63 1012.97 1013.26 1013.46 1013.54 1013.53 1013.46 1013.40 1013.39 1013.47 1013.64 1013.87 1014.11 1014.30 1014.40
1011.50 1012.74 1013.60 1013.95 1013.74 1013.04 1011.99 1010.79 1009.67 1008.82 1008.34 1008.26 1008.51 1008.96 1009.46 1009.88 1010.12 1010.17 1010.08 1009.93 1009.81 1009.82 1009.97 1010.26 1010.64 1011.03 1011.36 1011.60 1011.73 1011.79 1011.84 1011.94 1012.12 1012.40 1012.74 1013.09 1013.40 1013.60 1013.70 1013.69 1013.62 1013.57 1013.56 1013.65 1013.82 1014.04 1014.27 1014.46 1014.56
1011.97 1013.06 1013.74 1013.90 1013.53 1012.72 1011.64 1010.48 1009.45 1008.73 1008.39 1008.43 1008.75 1009.23 1009.72 1010.09 1010.27 1010.27 1010.15 1009.99 1009.90 1009.94 1010.13 1010.46 1010.86 1011.25 1011.56 1011.77 1011.87 1011.91 1011.94 1012.04 1012.23 1012.53 1012.89 1013.26 1013.59 1013.81 1013.92 1013.92 1013.87 1013.81 1013.80 1013.87 1014.01 1014.21 1014.40 1014.55 1014.64
1012.04 1012.95 1013.43 1013.42 1012.94 1012.10 1011.04 1009.98 1009.10 1008.53 1008.34 1008.48 1008.86 1009.35 1009.79 1010.10 1010.22 1010.17 1010.03 1009.89 1009.84 1009.93 1010.18 1010.56 1010.99 1011.40 1011.71 1011.91 1012.00 1012.03 1012.06 1012.17 1012.37 1012.68 1013.06 1013.45 1013.80 1014.04 1014.16 1014.18 1014.14 1014.07 1014.05 1014.09 1014.19 1014.33 1014.48 1014.59 1014.65
1011.77 1012.47 1012.77 1012.62 1012.07 1011.23 1010.26 1009.33 1008.61 1008.21 1008.15 1008.37 1008.78 1009.24 1009.63 1009.87 1009.93 1009.85 1009.71 1009.59 1009.59 1009.75 1010.07 1010.51 1010.98 1011.41 1011.74 1011.95 1012.05 1012.10 1012.15 1012.27 1012.50 1012.82 1013.22 1013.62 1013.97 1014.23 1014.36 1014.39 1014.35 1014.29 1014.25 1014.25 1014.31 1014.40 1014.50 1014.58 1014.62
1011.32 1011.82 1011.94 1011.68 1011.09 1010.29 1009.42 1008.64 1008.08 1007.83 1007.86 1008.13 1008.53 1008.94 1009.27 1009.43 1009.44 1009.34 1009.20 1009.13 1009.19 1009.41 1009.79 1010.27 1010.78 1011.25 1011.61 1011.85 1011.98 1012.06 1012.16 1012.31 1012.56 1012.90 1013.30 1013.70 1014.05 1014.31 1014.45 1014.49 1014.46 1014.40 1014.35 1014.33 1014.36 1014.42 1014.49 1014.55 1014.58
1010.90 1011.21 1011.18 1010.83 1010.23 1009.48 1008.72 1008.08 1007.65 1007.49 1007.58 1007.85 1008.20 1008.54 1008.78 1008.87 1008.84 1008.72 1008.60 1008.57 1008.67 1008.94 1009.36 1009.88 1010.41 1010.90 1011.29 1011.57 1011.76 1011.90 1012.05 1012.25 1012.53 1012.89 1013.28 1013.67 1014.01 1014.25 1014.39 1014.44 1014.42 1014.37 1014.34 1014.33 1014.35 1014.41 1014.47 1014.53 1014.58
1010.70 1010.85 1010.71 1010.29 1009.69 1009.00 1008.33 1007.79 1007.45 1007.33 1007.41 1007.63 1007.90 1008.13 1008.27 1008.30 1008.22 1008.10 1008.00 1007.99 1008.13 1008.43 1008.86 1009.38 1009.92 1010.41 1010.83 1011.15 1011.40 1011.61 1011.83 1012.09 1012.40 1012.77 1013.15 1013.51 1013.82 1014.04 1014.17 1014.23 1014.23 1014.22 1014.22 1014.25 1014.31 1014.39 1014.48 1014.57 1014.65
1010.85 1010.88 1010.65 1010.21 1009.62 1008.99 1008.39 1007.91 1007.59 1007.45 1007.46 1007.57 1007.71 1007.81 1007.84 1007.79 1007.67 1007.54 1007.46 1007.48 1007.64 1007.93 1008.35 1008.84 1009.36 1009.85 1010.28 1010.64 1010.95 1011.24 1011.52 1011.84 1012.18 1012.54 1012.90 1013.23 1013.50 1013.69 1013.82 1013.89 1013.93 1013.98 1014.04 1014.14 1014.25 1014.39 1014.53 1014.66 1014.79
1011.31 1011.26 1011.00 1010.56 1010.02 1009.44 1008.89 1008.43 1008.08 1007.87 1007.75 1007.69 1007.66 1007.60 1007.50 1007.36 1007.21 1007.07 1007.01 1007.05 1007.21 1007.49 1007.88 1008.33 1008.81 1009.28 1009.71 1010.11 1010.48 1010.83 1011.19 1011.54 1011.91 1012.27 1012.60 1012.88 1013.10 1013.27 1013.39 1013.49 1013.58 1013.70 1013.85 1014.02 1014.22 1014.43 1014.64 1014.82 1015.00
1011.97 1011.89 1011.63 1011.24 1010.75 1010.24 1009.73 1009.26 1008.85 1008.50 1008.21 1007.95 1007.71 1007.47 1007.22 1006.99 1006.80 1006.66 1006.61 1006.67 1006.84 1007.11 1007.46 1007.87 1008.31 1008.75 1009.19 1009.62 1010.04 1010.46 1010.86 1011.26 1011.64 1011.98 1012.27 1012.50 1012.69 1012.83 1012.95 1013.08 1013.23 1013.43 1013.67 1013.94 1014.23 1014.52 1014.78 1015.03 1015.24
1012.64 1012.57 1012.36 1012.04 1011.65 1011.20 1010.73 1010.25 1009.75 1009.25 1008.75 1008.26 1007.79 1007.34 1006.95 1006.62 1006.38 1006.24 1006.22 1006.30 1006.48 1006.75 1007.09 1007.47 1007.88 1008.32 1008.77 1009.23 1009.69 1010.16 1010.61 1011.03 1011.40 1011.72 1011.96 1012.15 1012.29 1012.41 1012.54 1012.71 1012.93 1013.20 1013.53 1013.89 1014.26 1014.62 1014.94 1015.23 1015.47
1013.14 1013.11 1012.98 1012.77 1012.50 1012.16 1011.74 1011.23 1010.65 1009.98 1009.27 1008.54 1007.82 1007.17 1006.61 1006.18 1005.90 1005.76 1005.77 1005.89 1006.11 1006.40 1006.74 1007.13 1007.54 1007.99 1008.46 1008.95 1009.45 1009.95 1010.43 1010.86 1011.22 1011.50 1011.70 1011.84 1011.95 1012.05 1012.19 1012.40 1012.67 1013.02 1013.42 1013.86 1014.29 1014.70 1015.07 1015.38 1015.66
1013.35 1013.38 1013.36 1013.30 1013.17 1012.95 1012.60 1012.10 1011.43 1010.62 1009.70 1008.73 1007.79 1006.93 1006.22 1005.69 1005.36 1005.23 1005.26 1005.44 1005.71 1006.05 1006.43 1006.84 1007.28 1007.75 1008.26 1008.78 1009.32 1009.85 1010.34 1010.76 1011.09 1011.33 1011.49 1011.59 1011.66 1011.76 1011.91 1012.14 1012.46 1012.87 1013.32 1013.81 1014.28 1014.72 1015.11 1015.44 1015.74
1013.26 1013.36 1013.47 1013.57 1013.61 1013.53 1013.27 1012.79 1012.08 1011.14 1010.05 1008.88 1007.72 1006.68 1005.82 1005.19 1004.82 1004.69 1004.76 1004.99 1005.32 1005.72 1006.16 1006.62 1007.10 1007.62 1008.15 1008.71 1009.28 1009.81 1010.30 1010.70 1011.00 1011.20 1011.31 1011.37 1011.43 1011.51 1011.67 1011.93 1012.28 1012.71 1013.20 1013.70 1014.18 1014.63 1015.02 1015.37 1015.69
1012.95 1013.13 1013.38 1013.65 1013.86 1013.93 1013.78 1013.35 1012.62 1011.60 1010.37 1009.04 1007.72 1006.52 1005.54 1004.83 1004.41 1004.28 1004.37 1004.64 1005.03 1005.48 1005.97 1006.49 1007.02 1007.57 1008.13 1008.71 1009.28 1009.82 1010.28 1010.65 1010.92 1011.07 1011.15 1011.18 1011.22 1011.30 1011.47 1011.74 1012.10 1012.54 1013.02 1013.51 1013.98 1014.41 1014.79 1015.15 1015.48
1012.62 1012.88 1013.25 1013.68 1014.05 1014.27 1014.23 1013.86 1013.14 1012.08 1010.77 1009.33 1007.90 1006.59 1005.52 1004.74 1004.28 1004.13 1004.23 1004.52 1004.93 1005.42 1005.94 1006.48 1007.03 1007.60 1008.17 1008.75 1009.31 1009.82 1010.26 1010.59 1010.81 1010.93 1010.98 1010.99 1011.02 1011.11 1011.28 1011.55 1011.91 1012.34 1012.80 1013.25 1013.68 1014.07 1014.43 1014.77 1015.12
1012.43 1012.77 1013.25 1013.80 1014.31 1014.65 1014.71 1014.41 1013.72 1012.65 1011.32 1009.84 1008.35 1006.98 1005.85 1005.03 1004.53 1004.35 1004.43 1004.70 1005.10 1005.57 1006.08 1006.60 1007.14 1007.69 1008.25 1008.80 1009.33 1009.80 1010.20 1010.49 1010.68 1010.78 1010.81 1010.81 1010.84 1010.93 1011.11 1011.38 1011.72 1012.12 1012.53 1012.93 1013.30 1013.64 1013.96 1014.29 1014.64
1012.55 1012.93 1013.49 1014.13 1014.72 1015.15 1015.28 1015.03 1014.38 1013.35 1012.04 1010.56 1009.08 1007.71 1006.57 1005.72 1005.19 1004.97 1004.99 1005.20 1005.54 1005.95 1006.39 1006.86 1007.34 1007.83 1008.34 1008.84 1009.31 1009.74 1010.09 1010.36 1010.52 1010.60 1010.63 1010.64 1010.68 1010.79 1010.97 1011.22 1011.55 1011.90 1012.26 1012.60 1012.90 1013.18 1013.45 1013.75 1014.09
1013.01 1013.41 1014.00 1014.67 1015.29 1015.75 1015.91 1015.70 1015.10 1014.12 1012.86 1011.45 1010.02 1008.70 1007.58 1006.74 1006.18 1005.91 1005.86 1005.98 1006.21 1006.50 1006.84 1007.19 1007.58 1007.98 1008.40 1008.83 1009.25 1009.63 1009.95 1010.19 1010.34 1010.42 1010.47 1010.50 1010.56 1010.68 1010.86 1011.11 1011.41 1011.72 1012.03 1012.30 1012.54 1012.76 1012.97 1013.23 1013.54
1013.76 1014.16 1014.72 1015.37 1015.96 1016.39 1016.54 1016.34 1015.78 1014.86 1013.69 1012.38 1011.05 1009.81 1008.75 1007.93 1007.36 1007.03 1006.89 1006.89 1006.98 1007.13 1007.32 1007.55 1007.81 1008.10 1008.43 1008.79 1009.15 1009.49 1009.78 1010.01 1010.16 1010.27 1010.33 1010.40 1010.49 1010.62 1010.81 1011.06 1011.33 1011.61 1011.86 1012.08 1012.26 1012.42 1012.58 1012.78 1013.06
1014.68 1015.04 1015.54 1016.11 1016.62 1016.98 1017.08 1016.86 1016.31 1015.46 1014.39 1013.20 1011.99 1010.86 1009.88 1009.10 1008.53 1008.15 1007.91 1007.78 1007.73 1007.73 1007.76 1007.84 1007.97 1008.16 1008.41 1008.70 1009.01 1009.32 1009.61 1009.84 1010.02 1010.15 1010.25 1010.34 1010.46 1010.61 1010.81 1011.05 1011.31 1011.56 1011.78 1011.96 1012.10 1012.21 1012.32 1012.47 1012.69
1015.63 1015.92 1016.34 1016.78 1017.18 1017.42 1017.43 1017.17 1016.63 1015.84 1014.86 1013.79 1012.71 1011.70 1010.82 1010.09 1009.52 1009.09 1008.77 1008.52 1008.33 1008.18 1008.08 1008.03 1008.05 1008.16 1008.34 1008.58 1008.88 1009.18 1009.47 1009.72 1009.93 1010.09 1010.21 1010.33 1010.47 1010.64 1010.84 1011.07 1011.32 1011.55 1011.76 1011.92 1012.04 1012.13 1012.21 1012.32 1012.48
1016.47 1016.70 1017.00 1017.32 1017.57 1017.69 1017.60 1017.28 1016.73 1015.98 1015.08 1014.12 1013.16 1012.26 1011.46 1010.78 1010.22 1009.75 1009.36 1009.01 1008.71 1008.45 1008.24 1008.10 1008.06 1008.11 1008.26 1008.49 1008.78 1009.09 1009.40 1009.68 1009.90 1010.08 1010.23 1010.36 1010.50 1010.67 1010.86 1011.09 1011.32 1011.56 1011.77 1011.93 1012.06 1012.15 1012.22 1012.30 1012.42
1017.17 1017.33 1017.53 1017.73 1017.84 1017.83 1017.64 1017.25 1016.68 1015.95 1015.12 1014.25 1013.38 1012.57 1011.84 1011.19 1010.63 1010.14 1009.69 1009.28 1008.90 1008.57 1008.30 1008.12 1008.04 1008.08 1008.23 1008.47 1008.77 1009.11 1009.43 1009.72 1009.96 1010.15 1010.29 1010.41 1010.53 1010.67 1010.84 1011.05 1011.28 1011.52 1011.75 1011.94 1012.09 1012.20 1012.29 1012.37 1012.46
Thickness
5841 5841 5836 5821 5793 5774 5775 5790 5801 5806 5811 5821 5824 5816 5803 5796 5789 5781 5805 5813 5811 5807 5804 5801 5798 5795 5792 5790 5788 5786 5784 5781 5779 5776 5774 5771 5768 5766 5764 5763 5762 5760 5759 5759 5759 5758 5758 5759 5760
5842 5840 5827 5808 5778 5760 5774 5795 5801 5811 5819 5825 5823 5817 5805 5800 5809 5805 5806 5810 5810 5807 5804 5801 5798 5795 5792 5790 5788 5786 5783 5781 5779 5776 5773 5770 5767 5765 5763 5761 5760 5758 5757 5755 5755 5754 5754 5754 5756
5841 5837 5814 5794 5777 5768 5781 5799 5809 5822 5829 5826 5818 5817 5807 5801 5810 5808 5809 5810 5808 5806 5803 5801 5798 5795 5793 5790 5788 5785 5783 5780 5778 5775 5772 5769 5766 5763 5761 5759 5758 5756 5754 5753 5752 5751 5750 5751 5753
5834 5820 5804 5783 5778 5790 5800 5809 5819 5821 5823 5826 5818 5806 5809 5816 5817 5815 5811 5810 5806 5804 5803 5800 5798 5795 5793 5790 5788 5786 5783 5780 5777 5774 5771 5768 5764 5761 5759 5757 5755 5754 5752 5751 5749 5748 5748 5749 5750
5827 5804 5783 5773 5781 5799 5813 5822 5825 5818 5816 5817 5814 5798 5798 5815 5822 5817 5811 5809 5806 5803 5802 5800 5798 5795 5793 5791 5788 5785 5782 5779 5776 5773 5769 5766 5763 5760 5757 5754 5753 5751 5750 5749 5748 5747 5746 5747 5748
5806 5791 5769 5762 5777 5802 5816 5825 5825 5817 5814 5815 5811 5797 5796 5813 5815 5813 5811 5809 5807 5803 5801 5799 5797 5795 5793 5790 5788 5785 5782 5778 5775 5771 5768 5765 5762 5759 5756 5753 5750 5749 5748 5747 5746 5746 5746 5746 5746
5796 5780 5764 5763 5773 5793 5814 5827 5821 5814 5813 5816 5816 5796 5796 5807 5813 5814 5810 5807 5805 5803 5800 5798 5796 5794 5792 5790 5787 5784 5781 5777 5773 5770 5766 5763 5760 5757 5754 5751 5748 5747 5746 5745 5745 5745 5745 5745 5745
5804 5782 5764 5764 5772 5789 5819 5828 5829 5823 5818 5828 5823 5798 5793 5806 5815 5813 5808 5804 5802 5800 5799 5797 5795 5793 5791 5789 5786 5784 5780 5776 5772 5768 5764 5761 5758 5755 5752 5749 5747 5745 5744 5743 5743 5743 5743 5743 5743
5809 5773 5759 5764 5771 5788 5814 5821 5831 5837 5828 5826 5826 5819 5817 5817 5814 5807 5801 5798 5797 5797 5797 5796 5794 5792 5790 5787 5785 5782 5779 5775 5771 5767 5763 5759 5756 5753 5750 5748 5745 5744 5742 5741 5741 5741 5741 5742 5743
5794 5768 5770 5779 5784 5791 5807 5817 5826 5822 5815 5813 5815 5820 5820 5816 5811 5804 5798 5795 5795 5794 5795 5795 5794 5791 5789 5786 5784 5780 5777 5774 5770 5766 5762 5757 5754 5751 5748 5746 5744 5743 5741 5740 5739 5739 5739 5740 5741
5794 5780 5786 5791 5799 5803 5807 5817 5829 5814 5803 5810 5812 5813 5815 5812 5809 5806 5803 5802 5801 5800 5798 5797 5794 5792 5788 5786 5782 5778 5775 5772 5768 5764 5760 5756 5752 5749 5747 5744 5743 5741 5740 5738 5737 5737 5737 5738 5738
5798 5799 5800 5803 5811 5810 5811 5817 5820 5819 5817 5827 5828 5825 5818 5812 5810 5809 5807 5805 5804 5802 5801 5800 5796 5792 5789 5785 5781 5777 5773 5770 5766 5763 5758 5754 5750 5747 5745 5743 5741 5740 5739 5737 5736 5736 5736 5735 5735
5795 5801 5810 5815 5815 5814 5816 5816 5816 5819 5828 5829 5827 5823 5818 5816 5815 5816 5815 5811 5807 5803 5803 5802 5799 5793 5789 5784 5780 5776 5772 5769 5766 5762 5758 5754 5750 5747 5745 5742 5740 5739 5738 5736 5735 5735 5735 5734 5733
5799 5802 5806 5810 5809 5811 5808 5811 5812 5813 5822 5820 5818 5816 5817 5817 5817 5815 5814 5810 5807 5805 5804 5802 5799 5795 5789 5784 5780 5776 5772 5769 5766 5763 5759 5755 5752 5748 5745 5743 5740 5738 5737 5735 5734 5733 5733 5732 5730
5802 5792 5794 5797 5800 5803 5803 5794 5798 5807 5813 5809 5810 5812 5813 5816 5817 5816 5817 5814 5811 5807 5805 5802 5799 5795 5789 5785 5780 5777 5773 5769 5765 5763 5761 5757 5753 5749 5745 5742 5739 5737 5736 5734 5731 5729 5729 5728 5726
5785 5775 5766 5778 5786 5792 5787 5774 5792 5800 5802 5798 5800 5803 5807 5811 5815 5818 5819 5817 5814 5809 5804 5802 5800 5795 5790 5785 5780 5777 5772 5768 5765 5763 5760 5758 5755 5751 5746 5743 5740 5737 5734 5731 5728 5726 5723 5722 5720
5755 5747 5751 5763 5776 5778 5773 5769 5785 5794 5795 5793 5794 5797 5800 5805 5810 5814 5817 5817 5814 5810 5805 5801 5800 5795 5790 5785 5780 5776 5771 5767 5764 5761 5759 5757 5754 5751 5747 5744 5741 5737 5733 5729 5727 5723 5720 5716 5714
5735 5737 5742 5747 5760 5764 5759 5761 5777 5786 5788 5789 5791 5792 5795 5799 5806 5813 5815 5815 5813 5810 5805 5801 5798 5794 5789 5783 5776 5771 5767 5764 5762 5759 5758 5756 5753 5750 5746 5742 5740 5736 5730 5727 5725 5720 5717 5713 5711
5741 5735 5733 5742 5755 5751 5748 5752 5765 5776 5778 5781 5785 5786 5790 5796 5806 5810 5812 5812 5808 5805 5801 5797 5793 5789 5784 5777 5770 5765 5761 5760 5759 5757 5756 5753 5750 5746 5742 5739 5736 5733 5729 5726 5722 5717 5712 5708 5706
5736 5727 5725 5735 5746 5744 5738 5745 5761 5768 5771 5775 5780 5784 5787 5791 5796 5800 5803 5804 5803 5800 5796 5793 5790 5786 5782 5776 5770 5765 5761 5758 5757 5755 5753 5750 5747 5743 5739 5734 5732 5730 5726 5722 5719 5714 5707 5704 5702
5728 5721 5720 5721 5729 5731 5724 5725 5743 5757 5764 5768 5775 5780 5787 5788 5789 5792 5794 5796 5795 5793 5791 5789 5785 5781 5776 5771 5765 5759 5754 5751 5748 5747 5747 5746 5743 5739 5735 5732 5728 5725 5723 5718 5716 5713 5707 5699 5697
5713 5727 5723 5717 5705 5695 5704 5687 5718 5731 5740 5749 5758 5769 5779 5788 5791 5789 5788 5787 5788 5787 5785 5782 5778 5773 5770 5766 5761 5755 5749 5745 5746 5745 5744 5742 5738 5734 5731 5728 5725 5722 5719 5715 5712 5710 5706 5701 5693
5720 5726 5717 5707 5694 5683 5687 5677 5694 5709 5712 5724 5739 5757 5773 5783 5787 5786 5784 5783 5782 5780 5776 5773 5769 5766 5763 5761 5757 5753 5748 5746 5744 5742 5739 5736 5733 5730 5727 5724 5721 5718 5715 5712 5708 5706 5703 5700 5694
5721 5710 5698 5685 5674 5663 5675 5670 5672 5681 5689 5704 5722 5741 5759 5771 5777 5777 5775 5773 5771 5770 5766 5761 5758 5756 5757 5756 5753 5749 5745 5742 5738 5735 5732 5729 5727 5725 5722 5720 5717 5714 5710 5707 5704 5702 5700 5697 5694
5701 5676 5655 5652 5648 5653 5674 5668 5663 5675 5684 5693 5704 5720 5737 5751 5758 5761 5760 5758 5758 5759 5755 5750 5748 5748 5750 5750 5748 5745 5742 5739 5734 5731 5727 5724 5721 5718 5717 5715 5712 5709 5705 5702 5700 5697 5695 5693 5692
5681 5671 5646 5635 5635 5648 5666 5660 5660 5672 5681 5689 5697 5707 5719 5729 5734 5741 5745 5747 5748 5748 5745 5743 5742 5743 5745 5745 5743 5741 5738 5734 5731 5728 5724 5719 5716 5714 5712 5710 5707 5704 5701 5698 5695 5693 5691 5690 5690
5660 5655 5655 5642 5639 5637 5646 5657 5660 5669 5673 5679 5687 5694 5700 5709 5717 5721 5726 5731 5735 5737 5735 5737 5739 5740 5741 5740 5738 5735 5733 5729 5726 5723 5719 5715 5712 5709 5707 5705 5702 5699 5696 5694 5692 5690 5688 5688 5688
5643 5639 5632 5628 5624 5624 5636 5638 5635 5647 5654 5664 5672 5679 5687 5696 5704 5708 5711 5715 5722 5728 5732 5736 5737 5737 5736 5734 5732 5729 5726 5723 5720 5716 5712 5709 5706 5703 5700 5698 5696 5694 5692 5690 5689 5687 5687 5686 5685
5618 5616 5616 5617 5621 5618 5617 5622 5631 5637 5646 5653 5661 5670 5680 5687 5692 5697 5700 5706 5715 5723 5729 5732 5733 5732 5729 5727 5724 5721 5718 5716 5713 5709 5706 5703 5700 5697 5694 5691 5689 5688 5686 5685 5684 5683 5683 5683 5682
5610 5604 5603 5603 5607 5613 5612 5613 5629 5635 5645 5650 5657 5667 5676 5683 5687 5692 5699 5706 5712 5718 5723 5725 5727 5726 5723 5720 5717 5714 5711 5708 5705 5703 5700 5698 5695 5692 5689 5686 5684 5682 5681 5679 5679 5678 5678 5678 5678